| time (UTC) | temp C | wind direction | speed KPH | gust KPH | rain 1hr cm | rain 24hr cm | rain mn cm | humidity % | barometer mb |
| 20260508111112 | 12 | 150 | 3.2 | 0.0 | 0.00 | 0.00 | 0.15 | 76 | 1013.3 |
| 20260508110615 | 12 | 121 | 3.2 | 0.0 | 0.00 | 0.00 | 0.15 | 76 | 1013.3 |
| 20260508110123 | 12 | 360 | 3.2 | 0.0 | 0.00 | 0.00 | 0.15 | 74 | 1013.4 |
| 20260508105118 | 13 | 76 | 4.8 | 0.0 | 0.00 | 0.00 | 0.13 | 73 | 1013.4 |
| 20260508104621 | 13 | 40 | 4.8 | 0.0 | 0.00 | 0.00 | 0.10 | 70 | 1013.5 |
| 20260508104118 | 13 | 65 | 4.8 | 0.0 | 0.00 | 0.00 | 0.10 | 70 | 1013.5 |
| 20260508103621 | 13 | 117 | 6.4 | 0.0 | 0.00 | 0.00 | 0.10 | 69 | 1013.5 |
| 20260508103124 | 13 | 139 | 6.4 | 0.0 | 0.00 | 0.00 | 0.10 | 70 | 1013.6 |
| 20260508102626 | 13 | 89 | 8.0 | 0.0 | 0.00 | 0.00 | 0.10 | 69 | 1013.5 |
| 20260508102128 | 13 | 175 | 8.0 | 0.0 | 0.00 | 0.00 | 0.10 | 69 | 1013.5 |
| 20260508101611 | 13 | 165 | 6.4 | 0.0 | 0.00 | 0.00 | 0.10 | 69 | 1013.5 |
| 20260508101131 | 13 | 142 | 6.4 | 0.0 | 0.00 | 0.00 | 0.10 | 69 | 1013.4 |
| 20260508095112 | 13 | 99 | 6.4 | 0.0 | 0.00 | 0.00 | 0.10 | 71 | 1013.2 |
| 20260508094615 | 13 | 128 | 6.4 | 0.0 | 0.00 | 0.00 | 0.10 | 70 | 1013.3 |
| 20260508094123 | 13 | 65 | 6.4 | 0.0 | 0.00 | 0.00 | 0.10 | 71 | 1013.3 |
| 20260508093627 | 13 | 127 | 8.0 | 0.0 | 0.00 | 0.00 | 0.10 | 71 | 1013.2 |
| 20260508093133 | 13 | 62 | 8.0 | 0.0 | 0.00 | 0.00 | 0.10 | 73 | 1013.2 |
| 20260508092611 | 13 | 26 | 8.0 | 0.0 | 0.00 | 0.00 | 0.10 | 73 | 1013.2 |
| 20260508092114 | 13 | 128 | 6.4 | 0.0 | 0.00 | 0.00 | 0.10 | 74 | 1013.2 |
| 20260508090629 | 12 | 117 | 8.0 | 0.0 | 0.00 | 0.00 | 0.10 | 80 | 1013.3 |
| 20260508090128 | 12 | 186 | 8.0 | 0.0 | 0.00 | 0.00 | 0.10 | 81 | 1013.2 |
| 20260508085612 | 12 | 44 | 6.4 | 0.0 | 0.00 | 0.00 | 0.10 | 80 | 1013.2 |
| 20260508085112 | 12 | 125 | 6.4 | 0.0 | 0.00 | 0.00 | 0.10 | 84 | 1013.2 |
| 20260508084618 | 12 | 58 | 6.4 | 0.0 | 0.00 | 0.00 | 0.10 | 85 | 1013.2 |
| 20260508084122 | 11 | 105 | 6.4 | 0.0 | 0.00 | 0.00 | 0.10 | 85 | 1013.2 |
| 20260508083625 | 11 | 165 | 6.4 | 0.0 | 0.00 | 0.00 | 0.10 | 85 | 1013.2 |
| 20260508083128 | 11 | 113 | 6.4 | 0.0 | 0.00 | 0.00 | 0.10 | 85 | 1013.2 |
| 20260508082617 | 11 | 140 | 6.4 | 0.0 | 0.00 | 0.00 | 0.10 | 85 | 1013.1 |
| 20260508082119 | 11 | 142 | 6.4 | 0.0 | 0.00 | 0.00 | 0.10 | 86 | 1013.1 |
| 20260508081622 | 11 | 130 | 4.8 | 0.0 | 0.00 | 0.00 | 0.10 | 86 | 1013.1 |
| 20260508081121 | 11 | 157 | 3.2 | 0.0 | 0.00 | 0.00 | 0.10 | 87 | 1013.1 |
| 20260508080129 | 11 | 318 | 3.2 | 0.0 | 0.00 | 0.00 | 0.10 | 86 | 1013.0 |
| 20260508075613 | 11 | 38 | 3.2 | 0.0 | 0.00 | 0.00 | 0.10 | 86 | 1013.0 |
| 20260508074620 | 11 | 88 | 4.8 | 0.0 | 0.00 | 0.00 | 0.10 | 85 | 1013.0 |
| 20260508073631 | 11 | 133 | 3.2 | 0.0 | 0.00 | 0.00 | 0.10 | 84 | 1012.8 |
| 20260508072616 | 10 | 127 | 3.2 | 0.0 | 0.00 | 0.00 | 0.10 | 84 | 1012.6 |
| 20260508072120 | 10 | 140 | 1.6 | 0.0 | 0.00 | 0.00 | 0.10 | 84 | 1012.6 |
| 20260508071623 | 10 | 123 | 1.6 | 0.0 | 0.00 | 0.00 | 0.10 | 84 | 1012.5 |
| 20260508071131 | 10 | 99 | 0.0 | 0.0 | 0.00 | 0.00 | 0.10 | 84 | 1012.5 |
| 20260508070634 | 10 | 131 | 0.0 | 0.0 | 0.00 | 0.00 | 0.10 | 85 | 1012.5 |
| 20260508070120 | 10 | 131 | 1.6 | 0.0 | 0.00 | 0.00 | 0.10 | 85 | 1012.7 |
| 20260508065618 | 10 | 61 | 1.6 | 0.0 | 0.00 | 0.00 | 0.10 | 86 | 1012.6 |
| 20260508064628 | 10 | 355 | 3.2 | 0.0 | 0.00 | 0.00 | 0.10 | 86 | 1012.7 |
| 20260508064126 | 10 | 324 | 1.6 | 0.0 | 0.00 | 0.00 | 0.10 | 85 | 1012.7 |
| 20260508063613 | 10 | 78 | 3.2 | 0.0 | 0.00 | 0.00 | 0.10 | 85 | 1012.8 |
| 20260508063117 | 10 | 240 | 3.2 | 0.0 | 0.00 | 0.00 | 0.08 | 84 | 1012.8 |
| 20260508062621 | 10 | 153 | 4.8 | 0.0 | 0.00 | 0.00 | 0.08 | 84 | 1012.8 |
| 20260508062123 | 10 | 16 | 3.2 | 0.0 | 0.00 | 0.00 | 0.08 | 84 | 1012.8 |
| 20260508061626 | 10 | 189 | 1.6 | 0.0 | 0.00 | 0.00 | 0.05 | 84 | 1012.7 |
| 20260508061125 | 10 | 195 | 1.6 | 0.0 | 0.00 | 0.00 | 0.05 | 83 | 1012.5 |
| 20260508060113 | 10 | 232 | 4.8 | 0.0 | 0.00 | 0.00 | 0.05 | 82 | 1012.4 |
| 20260508055622 | 11 | 65 | 4.8 | 0.0 | 0.00 | 0.00 | 0.05 | 81 | 1012.3 |
| 20260508055128 | 11 | 292 | 4.8 | 0.0 | 0.00 | 0.00 | 0.05 | 80 | 1012.3 |
| 20260508054630 | 11 | 74 | 4.8 | 0.0 | 0.00 | 0.00 | 0.05 | 79 | 1012.1 |
| 20260508054126 | 11 | 60 | 4.8 | 0.0 | 0.00 | 0.00 | 0.05 | 78 | 1012.1 |
| 20260508053612 | 11 | 111 | 4.8 | 0.0 | 0.00 | 0.00 | 0.00 | 76 | 1012.2 |
| 20260508052620 | 11 | 145 | 4.8 | 0.0 | 0.00 | 0.00 | 0.00 | 75 | 1011.8 |
| 20260508052123 | 11 | 128 | 4.8 | 0.0 | 0.00 | 0.00 | 0.00 | 73 | 1011.7 |
| 20260508051627 | 11 | 146 | 4.8 | 0.0 | 0.00 | 0.00 | 0.00 | 73 | 1011.8 |
| 20260508051125 | 11 | 120 | 6.4 | 0.0 | 0.00 | 0.00 | 0.00 | 73 | 1011.9 |
| 20260508050629 | 11 | 57 | 6.4 | 0.0 | 0.00 | 0.00 | 0.00 | 73 | 1012.0 |
| 20260508050130 | 11 | 77 | 6.4 | 0.0 | 0.00 | 0.00 | 0.00 | 72 | 1012.0 |
| 20260508045614 | 11 | 22 | 4.8 | 0.0 | 0.00 | 0.00 | 0.00 | 72 | 1012.0 |
| 20260508044621 | 12 | 61 | 6.4 | 0.0 | 0.00 | 0.00 | 0.00 | 72 | 1011.9 |
| 20260508044128 | 12 | 335 | 6.4 | 0.0 | 0.00 | 0.00 | 0.00 | 72 | 1012.0 |
| 20260508043631 | 12 | 122 | 4.8 | 0.0 | 0.00 | 0.00 | 0.00 | 71 | 1011.9 |
| 20260508043122 | 12 | 173 | 6.4 | 0.0 | 0.00 | 0.00 | 0.00 | 71 | 1011.7 |
| 20260508042618 | 12 | 102 | 8.0 | 0.0 | 0.00 | 0.00 | 0.00 | 70 | 1011.7 |
| 20260508041626 | 12 | 184 | 6.4 | 0.0 | 0.00 | 0.00 | 0.00 | 69 | 1011.7 |
| 20260508041129 | 12 | 28 | 6.4 | 0.0 | 0.00 | 0.00 | 0.00 | 69 | 1011.6 |
| 20260508040117 | 12 | 105 | 4.8 | 0.0 | 0.00 | 0.00 | 0.00 | 70 | 1011.5 |
| 20260508035621 | 12 | 123 | 4.8 | 0.0 | 0.00 | 0.00 | 0.00 | 70 | 1011.5 |
| 20260508035124 | 12 | 72 | 4.8 | 0.0 | 0.00 | 0.00 | 0.00 | 70 | 1011.6 |
| 20260508034626 | 12 | 38 | 3.2 | 0.0 | 0.00 | 0.00 | 0.00 | 71 | 1011.6 |
| 20260508034126 | 12 | 105 | 3.2 | 0.0 | 0.00 | 0.00 | 0.00 | 70 | 1011.9 |
| 20260508033629 | 12 | 139 | 4.8 | 0.0 | 0.00 | 0.00 | 0.00 | 70 | 1011.9 |
| 20260508033113 | 12 | 242 | 8.0 | 0.0 | 0.00 | 0.00 | 0.00 | 70 | 1012.0 |
| 20260508032126 | 12 | 119 | 6.4 | 0.0 | 0.00 | 0.00 | 0.00 | 70 | 1011.8 |
| 20260508031630 | 12 | 180 | 3.2 | 0.0 | 0.00 | 0.00 | 0.00 | 70 | 1011.7 |
| 20260508030118 | 12 | 55 | 4.8 | 0.0 | 0.00 | 0.00 | 0.00 | 70 | 1011.5 |
| 20260508025621 | 12 | 229 | 4.8 | 0.0 | 0.00 | 0.00 | 0.00 | 70 | 1011.5 |
| 20260508025123 | 12 | 88 | 3.2 | 0.0 | 0.00 | 0.00 | 0.00 | 71 | 1011.6 |
| 20260508024125 | 12 | 355 | 1.6 | 0.0 | 0.00 | 0.00 | 0.00 | 71 | 1011.5 |
| 20260508023627 | 12 | 67 | 3.2 | 0.0 | 0.00 | 0.00 | 0.00 | 71 | 1011.6 |
| 20260508023128 | 12 | 331 | 3.2 | 0.0 | 0.00 | 0.00 | 0.00 | 70 | 1011.6 |
| 20260508022630 | 12 | 94 | 3.2 | 0.0 | 0.00 | 0.00 | 0.00 | 70 | 1011.5 |
| 20260508022118 | 12 | 360 | 3.2 | 0.0 | 0.00 | 0.00 | 0.00 | 70 | 1011.4 |
| 20260508021620 | 12 | 301 | 3.2 | 0.0 | 0.00 | 0.00 | 0.00 | 70 | 1011.6 |
| 20260508021130 | 12 | 34 | 1.6 | 0.0 | 0.00 | 0.00 | 0.00 | 70 | 1011.6 |
| 20260508020633 | 12 | 316 | 1.6 | 0.0 | 0.00 | 0.00 | 0.00 | 69 | 1011.6 |
| 20260508020118 | 12 | 5 | 3.2 | 0.0 | 0.00 | 0.00 | 0.00 | 69 | 1011.7 |
| 20260508015617 | 12 | 190 | 4.8 | 0.0 | 0.00 | 0.00 | 0.00 | 68 | 1011.7 |
| 20260508015119 | 12 | 198 | 3.2 | 0.0 | 0.00 | 0.00 | 0.00 | 67 | 1011.5 |
| 20260508014621 | 12 | 130 | 1.6 | 0.0 | 0.00 | 0.00 | 0.00 | 67 | 1011.5 |
| 20260508014125 | 12 | 5 | 1.6 | 0.0 | 0.00 | 0.00 | 0.00 | 67 | 1011.3 |
| 20260508013111 | 12 | 317 | 1.6 | 0.0 | 0.00 | 0.00 | 0.00 | 67 | 1011.1 |
| 20260508012119 | 12 | 52 | 1.6 | 0.0 | 0.00 | 0.00 | 0.00 | 66 | 1011.2 |
| 20260508011624 | 12 | 32 | 1.6 | 0.0 | 0.00 | 0.00 | 0.00 | 67 | 1011.4 |
| 20260508011128 | 12 | 33 | 1.6 | 0.0 | 0.00 | 0.00 | 0.00 | 66 | 1011.4 |
| 20260508010610 | 13 | 321 | 1.6 | 0.0 | 0.00 | 0.00 | 0.00 | 66 | 1011.5 |
| 20260508010113 | 13 | 40 | 1.6 | 0.0 | 0.00 | 0.00 | 0.00 | 65 | 1011.6 |
| 20260508005621 | 13 | 17 | 1.6 | 0.0 | 0.00 | 0.00 | 0.00 | 64 | 1011.7 |
| 20260508005126 | 13 | 206 | 1.6 | 0.0 | 0.00 | 0.00 | 0.00 | 64 | 1011.8 |
| 20260508004630 | 13 | 288 | 1.6 | 0.0 | 0.00 | 0.00 | 0.00 | 65 | 1011.8 |
| 20260508004127 | 13 | 155 | 1.6 | 0.0 | 0.00 | 0.00 | 0.00 | 63 | 1012.0 |
| 20260508003630 | 13 | 348 | 3.2 | 0.0 | 0.00 | 0.00 | 0.00 | 63 | 1012.0 |
| 20260508003113 | 13 | 227 | 4.8 | 0.0 | 0.00 | 0.00 | 0.00 | 62 | 1012.0 |
| 20260508002616 | 13 | 182 | 6.4 | 0.0 | 0.00 | 0.00 | 0.00 | 61 | 1012.1 |
| 20260508002122 | 13 | 190 | 4.8 | 0.0 | 0.00 | 0.00 | 0.00 | 61 | 1012.1 |
| 20260508001626 | 13 | 155 | 3.2 | 0.0 | 0.00 | 0.00 | 0.00 | 60 | 1012.0 |
| 20260508001128 | 13 | 124 | 3.2 | 0.0 | 0.00 | 0.00 | 0.00 | 59 | 1012.0 |
| 20260508000612 | 13 | 19 | 1.6 | 0.0 | 0.00 | 0.00 | 0.00 | 59 | 1012.1 |
| 20260508000114 | 13 | 260 | 1.6 | 0.0 | 0.00 | 0.00 | 0.00 | 59 | 1012.1 |
| 20260507235618 | 13 | 99 | 4.8 | 0.0 | 0.00 | 0.00 | 0.03 | 60 | 1012.3 |
| 20260507234627 | 13 | 30 | 3.2 | 0.0 | 0.00 | 0.00 | 0.03 | 63 | 1012.5 |
| 20260507234117 | 13 | 310 | 3.2 | 0.0 | 0.00 | 0.00 | 0.03 | 65 | 1012.6 |
| 20260507233618 | 12 | 15 | 4.8 | 0.0 | 0.00 | 0.00 | 0.03 | 65 | 1012.5 |
| 20260507233123 | 12 | 304 | 6.4 | 0.0 | 0.00 | 0.00 | 0.03 | 66 | 1012.5 |
| 20260507232620 | 12 | 305 | 6.4 | 0.0 | 0.00 | 0.00 | 0.03 | 68 | 1012.7 |
| 20260507232129 | 12 | 312 | 6.4 | 0.0 | 0.00 | 0.00 | 0.03 | 67 | 1012.7 |
| 20260507231613 | 12 | 303 | 6.4 | 0.0 | 0.00 | 0.00 | 0.03 | 67 | 1012.8 |
| 20260507230620 | 12 | 323 | 3.2 | 0.0 | 0.00 | 0.00 | 0.03 | 67 | 1012.9 |
| 20260507230124 | 13 | 319 | 3.2 | 0.0 | 0.00 | 0.00 | 0.03 | 67 | 1012.9 |
| 20260507225626 | 13 | 316 | 1.6 | 0.0 | 0.00 | 0.00 | 0.03 | 67 | 1013.0 |
| 20260507225126 | 13 | 330 | 1.6 | 0.0 | 0.00 | 0.00 | 0.03 | 66 | 1013.0 |
| 20260507224629 | 13 | 355 | 3.2 | 0.0 | 0.00 | 0.00 | 0.03 | 67 | 1013.0 |
| 20260507224130 | 13 | 78 | 3.2 | 0.0 | 0.00 | 0.00 | 0.03 | 65 | 1013.1 |
| 20260507223613 | 13 | 105 | 3.2 | 0.0 | 0.00 | 0.00 | 0.03 | 65 | 1013.1 |
| 20260507223117 | 13 | 330 | 1.6 | 0.0 | 0.00 | 0.00 | 0.03 | 66 | 1012.9 |
| 20260507222626 | 13 | 280 | 3.2 | 0.0 | 0.00 | 0.00 | 0.03 | 67 | 1013.0 |
| 20260507222134 | 13 | 318 | 3.2 | 0.0 | 0.00 | 0.00 | 0.03 | 63 | 1013.0 |
| 20260507221120 | 13 | 9 | 3.2 | 0.0 | 0.00 | 0.00 | 0.03 | 64 | 1013.0 |
| 20260507220624 | 13 | 327 | 1.6 | 0.0 | 0.00 | 0.00 | 0.03 | 64 | 1013.1 |
| 20260507220127 | 13 | 31 | 3.2 | 0.0 | 0.00 | 0.00 | 0.03 | 63 | 1013.2 |
| 20260507215118 | 13 | 289 | 3.2 | 0.0 | 0.00 | 0.00 | 0.03 | 63 | 1013.2 |
| 20260507214620 | 13 | 213 | 3.2 | 0.0 | 0.00 | 0.00 | 0.03 | 63 | 1013.4 |
| 20260507214124 | 13 | 320 | 3.2 | 0.0 | 0.00 | 0.00 | 0.03 | 63 | 1013.3 |
| 20260507213627 | 13 | 345 | 3.2 | 0.0 | 0.00 | 0.00 | 0.03 | 62 | 1013.3 |
| 20260507212613 | 14 | 284 | 3.2 | 0.0 | 0.00 | 0.00 | 0.03 | 62 | 1013.3 |
| 20260507212118 | 14 | 325 | 3.2 | 0.0 | 0.00 | 0.00 | 0.03 | 61 | 1013.2 |
| 20260507211622 | 14 | 68 | 3.2 | 0.0 | 0.00 | 0.00 | 0.03 | 60 | 1013.2 |
| 20260507211131 | 15 | 134 | 3.2 | 0.0 | 0.00 | 0.00 | 0.03 | 59 | 1013.1 |
| 20260507210635 | 15 | 136 | 1.6 | 0.0 | 0.00 | 0.00 | 0.03 | 59 | 1013.1 |
| 20260507205619 | 15 | 188 | 1.6 | 0.0 | 0.00 | 0.00 | 0.03 | 58 | 1012.9 |
| 20260507205123 | 15 | 51 | 1.6 | 0.0 | 0.00 | 0.00 | 0.03 | 57 | 1012.7 |
| 20260507204626 | 15 | 346 | 3.2 | 0.0 | 0.00 | 0.00 | 0.03 | 58 | 1012.6 |
| 20260507204127 | 15 | 325 | 4.8 | 0.0 | 0.00 | 0.00 | 0.03 | 58 | 1012.4 |
| 20260507203630 | 15 | 336 | 3.2 | 0.0 | 0.00 | 0.00 | 0.03 | 57 | 1012.5 |
| 20260507203113 | 15 | 289 | 4.8 | 0.0 | 0.00 | 0.00 | 0.03 | 57 | 1012.4 |
| 20260507202616 | 15 | 329 | 3.2 | 0.0 | 0.00 | 0.00 | 0.03 | 57 | 1012.2 |
| 20260507202123 | 15 | 331 | 1.6 | 0.0 | 0.00 | 0.00 | 0.03 | 55 | 1012.1 |
| 20260507201626 | 15 | 17 | 3.2 | 0.0 | 0.00 | 0.00 | 0.03 | 55 | 1012.1 |
| 20260507201125 | 15 | 90 | 6.4 | 0.0 | 0.00 | 0.00 | 0.03 | 54 | 1012.0 |
| 20260507200115 | 15 | 49 | 4.8 | 0.0 | 0.00 | 0.00 | 0.03 | 56 | 1011.9 |
| 20260507195623 | 15 | 262 | 4.8 | 0.0 | 0.00 | 0.00 | 0.03 | 55 | 1011.9 |
| 20260507195127 | 15 | 64 | 3.2 | 0.0 | 0.00 | 0.00 | 0.03 | 55 | 1011.7 |
| 20260507194631 | 15 | 117 | 4.8 | 0.0 | 0.00 | 0.00 | 0.03 | 55 | 1011.7 |
| 20260507194128 | 16 | 121 | 6.4 | 0.0 | 0.00 | 0.00 | 0.03 | 55 | 1011.6 |
| 20260507192128 | 16 | 140 | 6.4 | 0.0 | 0.00 | 0.00 | 0.03 | 55 | 1011.3 |
| 20260507191115 | 15 | 128 | 1.6 | 0.0 | 0.00 | 0.00 | 0.03 | 55 | 1011.2 |
| 20260507190624 | 16 | 312 | 3.2 | 0.0 | 0.00 | 0.00 | 0.03 | 54 | 1010.8 |
| 20260507190126 | 16 | 317 | 6.4 | 0.0 | 0.00 | 0.00 | 0.03 | 54 | 1010.8 |
| 20260507185630 | 16 | 313 | 6.4 | 0.0 | 0.00 | 0.00 | 0.03 | 54 | 1010.8 |
| 20260507185115 | 16 | 316 | 4.8 | 0.0 | 0.00 | 0.00 | 0.03 | 53 | 1010.7 |
| 20260507184618 | 17 | 314 | 3.2 | 0.0 | 0.00 | 0.00 | 0.03 | 51 | 1010.7 |
| 20260507184125 | 17 | 317 | 1.6 | 0.0 | 0.00 | 0.00 | 0.03 | 50 | 1010.7 |
| 20260507183629 | 17 | 15 | 1.6 | 0.0 | 0.00 | 0.00 | 0.03 | 48 | 1010.6 |
| 20260507183134 | 18 | 20 | 1.6 | 0.0 | 0.00 | 0.00 | 0.03 | 46 | 1010.6 |
| 20260507182611 | 18 | 351 | 3.2 | 0.0 | 0.00 | 0.00 | 0.03 | 46 | 1010.6 |
| 20260507182115 | 18 | 49 | 4.8 | 0.0 | 0.00 | 0.00 | 0.03 | 45 | 1010.7 |
| 20260507181617 | 18 | 18 | 3.2 | 0.0 | 0.00 | 0.00 | 0.03 | 45 | 1010.6 |
| 20260507181125 | 18 | 51 | 1.6 | 0.0 | 0.00 | 0.00 | 0.03 | 45 | 1010.6 |
| 20260507180628 | 18 | 5 | 0.0 | 0.0 | 0.00 | 0.00 | 0.03 | 46 | 1010.7 |
| 20260507174627 | 18 | 165 | 1.6 | 0.0 | 0.00 | 0.00 | 0.03 | 44 | 1010.6 |
| 20260507174130 | 18 | 157 | 4.8 | 0.0 | 0.00 | 0.00 | 0.03 | 44 | 1010.6 |
| 20260507173120 | 19 | 139 | 8.0 | 0.0 | 0.00 | 0.00 | 0.03 | 40 | 1010.6 |
| 20260507172135 | 20 | 125 | 8.0 | 0.0 | 0.00 | 0.00 | 0.03 | 39 | 1010.5 |
| 20260507171619 | 20 | 171 | 8.0 | 0.0 | 0.00 | 0.00 | 0.03 | 38 | 1010.5 |
| 20260507171116 | 20 | 182 | 8.0 | 0.0 | 0.00 | 0.00 | 0.03 | 38 | 1010.4 |
| 20260507170619 | 20 | 146 | 3.2 | 0.0 | 0.00 | 0.00 | 0.03 | 38 | 1010.4 |
| 20260507170127 | 20 | 110 | 1.6 | 0.0 | 0.00 | 0.00 | 0.03 | 40 | 1010.4 |
| 20260507165611 | 19 | 281 | 1.6 | 0.0 | 0.00 | 0.00 | 0.03 | 39 | 1010.4 |
| 20260507165114 | 18 | 138 | 3.2 | 0.0 | 0.00 | 0.00 | 0.03 | 39 | 1010.4 |
| 20260507164617 | 18 | 155 | 3.2 | 0.0 | 0.00 | 0.00 | 0.03 | 39 | 1010.4 |
| 20260507164120 | 19 | 126 | 1.6 | 0.0 | 0.00 | 0.00 | 0.03 | 40 | 1010.4 |
| 20260507162613 | 18 | 139 | 3.2 | 0.0 | 0.00 | 0.00 | 0.03 | 41 | 1010.4 |
| 20260507162115 | 19 | 138 | 4.8 | 0.0 | 0.00 | 0.00 | 0.03 | 43 | 1010.4 |
| 20260507161618 | 19 | 136 | 4.8 | 0.0 | 0.00 | 0.00 | 0.03 | 45 | 1010.4 |
| 20260507161121 | 19 | 140 | 4.8 | 0.0 | 0.00 | 0.00 | 0.03 | 41 | 1010.4 |
| 20260507160625 | 19 | 97 | 4.8 | 0.0 | 0.00 | 0.00 | 0.03 | 39 | 1010.4 |
| 20260507160129 | 20 | 133 | 4.8 | 0.0 | 0.00 | 0.00 | 0.03 | 39 | 1010.5 |
| 20260507155611 | 20 | 118 | 6.4 | 0.0 | 0.00 | 0.00 | 0.03 | 39 | 1010.4 |
| 20260507155114 | 20 | 159 | 6.4 | 0.0 | 0.00 | 0.00 | 0.03 | 36 | 1010.4 |
| 20260507154616 | 20 | 175 | 6.4 | 0.0 | 0.00 | 0.00 | 0.03 | 37 | 1010.4 |
| 20260507153129 | 21 | 277 | 6.4 | 0.0 | 0.00 | 0.00 | 0.03 | 34 | 1010.5 |
| 20260507152614 | 21 | 355 | 6.4 | 0.0 | 0.00 | 0.00 | 0.03 | 35 | 1010.6 |
| 20260507152117 | 21 | 138 | 6.4 | 0.0 | 0.00 | 0.00 | 0.03 | 35 | 1010.7 |
| 20260507151620 | 20 | 65 | 4.8 | 0.0 | 0.00 | 0.00 | 0.03 | 35 | 1010.6 |
| 20260507151123 | 20 | 162 | 4.8 | 0.0 | 0.00 | 0.00 | 0.03 | 36 | 1010.7 |
| 20260507150625 | 20 | 152 | 6.4 | 0.0 | 0.00 | 0.00 | 0.03 | 37 | 1010.8 |
| 20260507150125 | 20 | 211 | 8.0 | 0.0 | 0.00 | 0.00 | 0.03 | 34 | 1010.9 |
| 20260507145619 | 20 | 137 | 8.0 | 0.0 | 0.00 | 0.00 | 0.03 | 35 | 1010.9 |
| 20260507145121 | 20 | 106 | 8.0 | 0.0 | 0.00 | 0.00 | 0.03 | 37 | 1010.9 |
| 20260507144626 | 20 | 185 | 6.4 | 0.0 | 0.00 | 0.00 | 0.03 | 35 | 1010.9 |
| 20260507143629 | 20 | 251 | 6.4 | 0.0 | 0.00 | 0.00 | 0.03 | 36 | 1011.0 |
| 20260507143130 | 20 | 190 | 6.4 | 0.0 | 0.00 | 0.00 | 0.03 | 36 | 1011.1 |
| 20260507142613 | 20 | 182 | 6.4 | 0.0 | 0.00 | 0.00 | 0.03 | 37 | 1011.1 |
| 20260507142117 | 20 | 99 | 4.8 | 0.0 | 0.00 | 0.00 | 0.03 | 41 | 1011.1 |
| 20260507141619 | 19 | 80 | 4.8 | 0.0 | 0.00 | 0.00 | 0.03 | 38 | 1011.2 |
| 20260507141123 | 19 | 228 | 3.2 | 0.0 | 0.00 | 0.00 | 0.03 | 37 | 1011.2 |
| 20260507140628 | 19 | 155 | 3.2 | 0.0 | 0.00 | 0.00 | 0.03 | 38 | 1011.3 |
| 20260507140113 | 18 | 131 | 3.2 | 0.0 | 0.00 | 0.00 | 0.03 | 42 | 1011.5 |
| 20260507135615 | 18 | 77 | 4.8 | 0.0 | 0.00 | 0.00 | 0.03 | 40 | 1011.5 |
| 20260507135119 | 17 | 11 | 6.4 | 0.0 | 0.00 | 0.00 | 0.03 | 46 | 1011.6 |
| 20260507134621 | 18 | 126 | 8.0 | 0.0 | 0.00 | 0.00 | 0.03 | 51 | 1011.8 |
| 20260507134128 | 18 | 123 | 8.0 | 0.0 | 0.00 | 0.00 | 0.03 | 51 | 1011.6 |
| 20260507133634 | 18 | 174 | 8.0 | 0.0 | 0.00 | 0.00 | 0.03 | 45 | 1011.5 |
| 20260507133117 | 18 | 108 | 8.0 | 0.0 | 0.00 | 0.00 | 0.03 | 45 | 1011.5 |
| 20260507132122 | 18 | 107 | 6.4 | 0.0 | 0.00 | 0.00 | 0.03 | 46 | 1011.5 |
| 20260507131626 | 19 | 117 | 4.8 | 0.0 | 0.00 | 0.00 | 0.03 | 44 | 1011.4 |
| 20260507130612 | 19 | 163 | 4.8 | 0.0 | 0.00 | 0.00 | 0.03 | 41 | 1011.6 |
| 20260507130115 | 18 | 109 | 4.8 | 0.0 | 0.00 | 0.00 | 0.03 | 42 | 1011.6 |
| 20260507125126 | 19 | 104 | 6.4 | 0.0 | 0.00 | 0.00 | 0.03 | 43 | 1011.6 |
| 20260507124610 | 19 | 114 | 4.8 | 0.0 | 0.00 | 0.00 | 0.03 | 43 | 1011.6 |
| 20260507124113 | 18 | 136 | 3.2 | 0.0 | 0.00 | 0.00 | 0.03 | 43 | 1011.7 |
| 20260507123616 | 18 | 71 | 3.2 | 0.0 | 0.00 | 0.00 | 0.03 | 47 | 1011.9 |
| 20260507123120 | 18 | 230 | 4.8 | 0.0 | 0.00 | 0.00 | 0.03 | 46 | 1011.9 |
| 20260507122116 | 18 | 49 | 4.8 | 0.0 | 0.00 | 0.00 | 0.03 | 46 | 1012.0 |
| 20260507121620 | 19 | 64 | 4.8 | 0.0 | 0.00 | 0.00 | 0.03 | 47 | 1012.1 |
| 20260507121119 | 20 | 115 | 4.8 | 0.0 | 0.00 | 0.00 | 0.03 | 45 | 1012.2 |
| 20260507120621 | 20 | 155 | 4.8 | 0.0 | 0.00 | 0.00 | 0.03 | 44 | 1012.2 |
| 20260507120125 | 20 | 94 | 4.8 | 0.0 | 0.00 | 0.00 | 0.03 | 43 | 1012.4 |
| 20260507115612 | 20 | 81 | 3.2 | 0.0 | 0.00 | 0.00 | 0.03 | 47 | 1012.4 |
| 20260507114620 | 19 | 121 | 4.8 | 0.0 | 0.00 | 0.00 | 0.03 | 46 | 1012.5 |
| 20260507114122 | 19 | 147 | 4.8 | 0.0 | 0.00 | 0.00 | 0.03 | 46 | 1012.4 |
| 20260507113627 | 19 | 166 | 4.8 | 0.0 | 0.00 | 0.00 | 0.03 | 47 | 1012.5 |
| 20260507113128 | 19 | 90 | 4.8 | 0.0 | 0.00 | 0.00 | 0.03 | 50 | 1012.7 |
| 20260507112612 | 19 | 101 | 4.8 | 0.0 | 0.00 | 0.00 | 0.03 | 48 | 1012.8 |
| 20260507112116 | 19 | 90 | 4.8 | 0.0 | 0.00 | 0.00 | 0.03 | 49 | 1012.7 |